Location: Huppendorf
(49.9333°N, 11.1500°E)
Time: 18:35:29
(UTC+00:00)

Okean-O - Pass Details

Date: 27 February 2020
Orbit: 638 x 641 km, 98.2° (Epoch: 05 April)

Event Time Altitude Azimuth Distance (km) Brightness Sun altitude
Rises 17:25:31 0° 175° (S) 2,935 6.0 -6.0°
Reaches altitude 10° 17:27:44 10° 179° (S) 2,031 5.3 -6.3°
Maximum altitude 17:32:06 57° 259° (W) 757 3.5 -7.0°
Drops below altitude 10° 17:36:30 10° 338° (NNW) 2,047 5.5 -7.7°
Sets 17:38:45 0° 343° (NNW) 2,961 6.2 -8.1°
